Portada
METAR-TAF:

METAR-TAF

Aeroports :

Williamson County Regional Airport

Marion, Illinois, Estats Units d'Amèrica

latitud: 37-45-01N, longitud: 089-00-04W, altitud: 144 m

Observació

L'informe es va fer fa 28 minuts, a les 12:45 UTC
Vent 10 kt del Nord
Temperatura 16°C
Humitat 72%
Pressió 1023 hPa
Visibilitat: 16.1 km
Cel clar

METAR: KMWA 301245Z 36010KT 10SM SKC 16/11 A3020

Hora: 08:13 (13:13 UTC)


TAF: manca

Observacions i pronòstics meteorològics de més de 4000 aeroports (METAR i TAF).

Les estacions disponibles són els punts grocs i vermells al mapa.

Posi el ratolí al punt desitjat per veure el nom de l'estació.

Feu clic per veure les observacions i els pronòstics meteorològics.

Per canviar el mapa: feu clic els botons verds amb una creu de color negre per apropar; al botó verd amb un guió per allunyar la imatge; o en les fletxes verdes per a mapes adjacents.


METAR-TAF: